Regional Weather Roundup
Issued by NWS Little Rock, AR

Home | Current Version | Previous Version | Graphics & Text | Print | Product List | Glossary On
Versions: 1 2 3 4 5 6 7 8 9 10 11 12 13 14 15 16 17 18 19 20 21 22 23 24 25 26 27 28 29 30 31 32 33 34 35 36 37 38 39 40 41 42 43 44 45 46 47 48 49 50
000
ASUS44 KLZK 210005
RWRLZK

WEATHER ROUNDUP FOR ARKANSAS
NATIONAL WEATHER SERVICE LITTLE ROCK AR
600 PM CST SAT DEC 20 2014

NOTE: "FAIR" INDICATES FEW OR NO CLOUDS BELOW 12,000 FEET WITH NO
SIGNIFICANT WEATHER AND/OR OBSTRUCTIONS TO VISIBILITY.

ARZ001-003-010-029-210100-
NORTHWEST ARKANSAS

CITY           SKY/WX    TMP DP  RH WIND       PRES   REMARKS
FAYETTEVILLE   CLOUDY    41  36  82 S3        30.19S
6HR MIN TEMP:  41; 6HR MAX TEMP:  43;

FORT SMITH     CLOUDY    45  40  82 E3        30.21S
6HR MIN TEMP:  45; 6HR MAX TEMP:  47;

HARRISON       CLOUDY    42  39  89 S5        30.19S
6HR MIN TEMP:  41; 6HR MAX TEMP:  43;

BENTONVILLE    CLOUDY    43  34  70 SW8       30.19R
6HR MIN TEMP:  43; 6HR MAX TEMP:  45;

ROGERS         CLOUDY    42  36  79 S8        30.19R
6HR MIN TEMP:  42; 6HR MAX TEMP:  44;

SILOAM SPGS    CLOUDY    43  32  65 SW7       30.20R
6HR MIN TEMP:  43; 6HR MAX TEMP:  45;

HIGHFILL       CLOUDY    42  36  79 S7        30.18R
6HR MIN TEMP:  42; 6HR MAX TEMP:  44;

SPRINGDALE     CLOUDY    43  36  75 S8        30.20S
$$

ARZ004-005-016-210100-
NORTH CENTRAL ARKANSAS

CITY           SKY/WX    TMP DP  RH WIND       PRES   REMARKS
BATESVILLE     CLOUDY    41  36  81 SE5       30.24S
6HR MIN TEMP:  41; 6HR MAX TEMP:  45;

FLIPPIN        CLOUDY    43  36  75 E3        30.21R
6HR MIN TEMP:  41; 6HR MAX TEMP:  43;

MTN HOME       CLOUDY    41  39  93 E3        30.21R
6HR MIN TEMP:  41; 6HR MAX TEMP:  43;

$$

ARZ040-041-210100-
WEST CENTRAL ARKANSAS

CITY           SKY/WX    TMP DP  RH WIND       PRES   REMARKS
MENA           CLOUDY    48  45  87 CALM      30.19S
MOUNT IDA      CLOUDY    46  43  89 CALM      30.18S
6HR MIN TEMP:  46; 6HR MAX TEMP:  49;

$$

ARZ009-017-025-026-028-210100-
NORTHEAST ARKANSAS

CITY           SKY/WX    TMP DP  RH WIND       PRES   REMARKS
CORNING        CLOUDY    43  36  75 NE5       30.26R HAZE
JONESBORO      PTCLDY    38  36  92 CALM      30.25R
6HR MIN TEMP:  38; 6HR MAX TEMP:  45;

NEWPORT        CLOUDY    41  37  85 CALM      30.27R
6HR MIN TEMP:  41; 6HR MAX TEMP:  44;

WALNUT RIDGE   CLOUDY    43  34  70 E3        30.24R
6HR MIN TEMP:  43; 6HR MAX TEMP:  45;

BLYTHEVILLE    CLEAR     38  34  85 NE5       30.25S
6HR MIN TEMP:  38; 6HR MAX TEMP:  49;

$$

ARZ022-023-033-042-044-210100-
CENTRAL ARKANSAS

CITY           SKY/WX    TMP DP  RH WIND       PRES   REMARKS
LITTLE ROCK    PTCLDY    44  35  70 SE3       30.23S
6HR MIN TEMP:  44; 6HR MAX TEMP:  50;

N LITTLE ROCK  PTCLDY    45  39  81 NE5       30.23S
6HR MIN TEMP:  44; 6HR MAX TEMP:  48;

JACKSONVILLE   CLOUDY    44  37  76 NE3       30.23S
6HR MIN TEMP:  44; 6HR MAX TEMP:  48;

SEARCY         CLOUDY    42  36  79 E5        30.26R
6HR MIN TEMP:  42; 6HR MAX TEMP:  46;

HOT SPRINGS    CLOUDY    49  41  74 CALM      30.21S
6HR MIN TEMP:  46; 6HR MAX TEMP:  51;

RUSSELLVILLE   CLOUDY    45  39  79 CALM      30.22R
6HR MIN TEMP:  44; 6HR MAX TEMP:  48;

CLINTON        CLOUDY    45  39  81 E3        30.24S
$$

ARZ036-210100-
EAST ARKANSAS

CITY           SKY/WX    TMP DP  RH WIND       PRES   REMARKS
WEST MEMPHIS   CLOUDY    44  38  79 N3        30.23R
6HR MIN TEMP:  44; 6HR MAX TEMP:  47;

$$

ARZ050-053-066-070-073-210100-
SOUTHWEST ARKANSAS

CITY           SKY/WX    TMP DP  RH WIND       PRES   REMARKS
ARKADELPHIA    FAIR      44  44 100 CALM      30.22S
6HR MIN TEMP:  44; 6HR MAX TEMP:  52;

CAMDEN         MOCLDY    48  41  76 CALM      30.21S
TEXARKANA      CLOUDY    48  41  76 N5        30.20S
6HR MIN TEMP:  46; 6HR MAX TEMP:  51;

EL DORADO      PTCLDY    44  42  93 N3        30.20R
6HR MIN TEMP:  43; 6HR MAX TEMP:  56;

DE QUEEN       CLOUDY    48  43  82 CALM      30.19F
6HR MIN TEMP:  47; 6HR MAX TEMP:  50;

$$

ARZ056-057-069-210100-
SOUTHEAST ARKANSAS

CITY           SKY/WX    TMP DP  RH WIND       PRES   REMARKS
PINE BLUFF     CLEAR     43  36  76 N6        30.23R
6HR MIN TEMP:  43; 6HR MAX TEMP:  51;

STUTTGART      CLOUDY    45  36  70 E6        30.24S
6HR MIN TEMP:  45; 6HR MAX TEMP:  48;

MONTICELLO     CLEAR     46  39  76 VRB3      30.21R
6HR MIN TEMP:  46; 6HR MAX TEMP:  54;


$$




USA.gov is the U.S. government's official web portal to all federal, state and local government web resources and services.